Time,TemperatureF,DewpointF,PressureIn,WindDirection,WindDirectionDegrees,WindSpeedMPH,WindSpeedGustMPH,Humidity,HourlyPrecipIn,Conditions,Clouds,dailyrainin,SoftwareType,DateUTC
2013-02-05 00:01:00,47.0,44.0,29.99,SSW,211,21.0,30.0,88,0.00,,,0.00,,2013-02-05 08:01:00,
2013-02-05 00:11:00,47.0,44.0,29.99,SSW,211,21.0,30.0,88,0.00,,,0.00,,2013-02-05 08:11:00,
2013-02-05 00:21:00,47.0,44.0,29.99,SSW,192,18.0,33.0,88,0.00,,,0.00,,2013-02-05 08:21:00,
2013-02-05 00:31:00,47.0,44.0,29.99,South,177,23.0,29.0,88,0.00,,,0.00,,2013-02-05 08:31:00,
2013-02-05 00:41:00,47.0,44.0,29.99,South,177,23.0,29.0,88,0.00,,,0.00,,2013-02-05 08:41:00,
2013-02-05 00:52:00,47.0,43.0,29.99,SSW,195,22.0,34.0,87,0.00,,,0.00,,2013-02-05 08:52:00,
2013-02-05 01:02:00,47.0,43.0,29.98,SSW,202,20.0,33.0,87,0.00,,,0.00,,2013-02-05 09:02:00,
2013-02-05 01:11:00,47.0,43.0,29.98,SSW,202,20.0,33.0,87,0.00,,,0.00,,2013-02-05 09:11:00,
2013-02-05 01:21:00,47.0,44.0,29.98,South,181,19.0,28.0,88,0.00,,,0.00,,2013-02-05 09:21:00,
2013-02-05 01:31:00,47.0,44.0,29.98,South,183,16.0,33.0,88,0.00,,,0.00,,2013-02-05 09:31:00,
2013-02-05 01:41:00,47.0,44.0,29.98,South,183,16.0,33.0,88,0.00,,,0.00,,2013-02-05 09:41:00,
2013-02-05 01:52:00,47.0,44.0,29.98,South,169,20.0,28.0,88,0.00,,,0.00,,2013-02-05 09:52:00,
2013-02-05 02:01:00,47.0,43.0,29.98,SSW,205,19.0,30.0,87,0.00,,,0.00,,2013-02-05 10:01:00,
2013-02-05 02:11:00,47.0,43.0,29.98,SSW,205,19.0,30.0,87,0.00,,,0.00,,2013-02-05 10:11:00,
2013-02-05 02:21:00,47.0,43.0,29.97,SSE,162,13.0,25.0,87,0.00,,,0.00,,2013-02-05 10:21:00,
2013-02-05 02:31:00,47.0,43.0,29.97,SSW,211,11.0,25.0,87,0.00,,,0.00,,2013-02-05 10:31:00,
2013-02-05 02:42:00,47.0,43.0,29.97,SSW,211,11.0,25.0,87,0.00,,,0.00,,2013-02-05 10:42:00,
2013-02-05 02:52:00,47.0,44.0,29.97,South,175,15.0,30.0,88,0.00,,,0.00,,2013-02-05 10:52:00,
2013-02-05 03:01:00,46.0,43.0,29.96,SSW,194,13.0,23.0,88,0.00,,,0.00,,2013-02-05 11:01:00,
2013-02-05 03:11:00,46.0,43.0,29.96,SSW,194,13.0,23.0,88,0.00,,,0.00,,2013-02-05 11:11:00,
2013-02-05 03:22:00,46.0,43.0,29.96,South,189,12.0,20.0,89,0.00,,,0.00,,2013-02-05 11:22:00,
2013-02-05 03:31:00,46.0,43.0,29.96,SSW,211,16.0,23.0,90,0.01,,,0.01,,2013-02-05 11:31:00,
2013-02-05 03:41:00,46.0,43.0,29.96,SSW,211,16.0,23.0,90,0.01,,,0.01,,2013-02-05 11:41:00,
2013-02-05 03:52:00,46.0,43.0,29.96,South,191,11.0,24.0,90,0.01,,,0.01,,2013-02-05 11:52:00,
2013-02-05 04:01:00,46.0,44.0,29.96,SSW,210,13.0,21.0,91,0.02,,,0.02,,2013-02-05 12:01:00,
2013-02-05 04:12:00,46.0,44.0,29.96,SSW,210,13.0,21.0,91,0.02,,,0.02,,2013-02-05 12:12:00,
2013-02-05 04:21:00,46.0,44.0,29.96,South,182,8.0,24.0,91,0.02,,,0.02,,2013-02-05 12:21:00,
2013-02-05 04:31:00,46.0,44.0,29.96,South,177,13.0,19.0,92,0.03,,,0.04,,2013-02-05 12:31:00,
2013-02-05 04:41:00,46.0,44.0,29.96,South,177,13.0,19.0,92,0.03,,,0.04,,2013-02-05 12:41:00,
2013-02-05 04:52:00,46.0,44.0,29.96,SSW,208,14.0,23.0,92,0.04,,,0.05,,2013-02-05 12:52:00,
2013-02-05 05:01:00,46.0,44.0,29.95,South,184,14.0,21.0,92,0.04,,,0.06,,2013-02-05 13:01:00,
2013-02-05 05:11:00,46.0,44.0,29.95,South,184,14.0,21.0,92,0.04,,,0.06,,2013-02-05 13:11:00,
2013-02-05 05:21:00,46.0,44.0,29.95,South,181,14.0,26.0,92,0.05,,,0.07,,2013-02-05 13:21:00,
2013-02-05 05:31:00,46.0,44.0,29.94,SSW,202,14.0,22.0,92,0.03,,,0.07,,2013-02-05 13:31:00,
2013-02-05 05:41:00,46.0,44.0,29.94,SSW,202,14.0,22.0,92,0.03,,,0.07,,2013-02-05 13:41:00,
2013-02-05 05:52:00,47.0,45.0,29.95,SSW,194,12.0,21.0,92,0.02,,,0.07,,2013-02-05 13:52:00,
2013-02-05 06:01:00,47.0,45.0,29.95,South,186,16.0,31.0,92,0.02,,,0.08,,2013-02-05 14:01:00,
2013-02-05 06:12:00,47.0,45.0,29.95,South,186,16.0,31.0,92,0.02,,,0.08,,2013-02-05 14:12:00,
2013-02-05 06:21:00,47.0,45.0,29.95,SSE,162,20.0,29.0,92,0.01,,,0.08,,2013-02-05 14:21:00,
2013-02-05 06:31:00,47.0,45.0,29.95,SSW,201,14.0,22.0,92,0.01,,,0.08,,2013-02-05 14:31:00,
2013-02-05 06:41:00,47.0,45.0,29.95,SSW,201,14.0,22.0,92,0.01,,,0.08,,2013-02-05 14:41:00,
2013-02-05 06:52:00,47.0,45.0,29.95,South,179,12.0,26.0,92,0.01,,,0.08,,2013-02-05 14:52:00,
2013-02-05 07:01:00,47.0,45.0,29.95,South,181,16.0,27.0,92,0.00,,,0.08,,2013-02-05 15:01:00,
2013-02-05 07:11:00,47.0,45.0,29.95,South,181,16.0,27.0,92,0.00,,,0.08,,2013-02-05 15:11:00,
2013-02-05 07:21:00,47.0,45.0,29.95,SSE,162,20.0,29.0,93,0.02,,,0.10,,2013-02-05 15:21:00,
2013-02-05 07:32:00,47.0,45.0,29.95,SSW,194,17.0,29.0,92,0.03,,,0.11,,2013-02-05 15:32:00,
2013-02-05 07:41:00,47.0,45.0,29.95,SSW,194,17.0,29.0,92,0.03,,,0.11,,2013-02-05 15:41:00,
2013-02-05 07:52:00,46.0,44.0,29.95,SSW,194,19.0,25.0,92,0.03,,,0.11,,2013-02-05 15:52:00,
2013-02-05 08:01:00,47.0,45.0,29.96,SSW,194,15.0,29.0,92,0.03,,,0.11,,2013-02-05 16:01:00,
2013-02-05 08:11:00,47.0,45.0,29.96,SSW,194,15.0,29.0,92,0.03,,,0.11,,2013-02-05 16:11:00,
2013-02-05 08:22:00,47.0,45.0,29.96,South,182,12.0,23.0,93,0.01,,,0.11,,2013-02-05 16:22:00,
2013-02-05 08:32:00,47.0,45.0,29.96,South,185,18.0,25.0,92,0.00,,,0.11,,2013-02-05 16:32:00,
2013-02-05 08:41:00,47.0,45.0,29.96,South,185,18.0,25.0,92,0.00,,,0.11,,2013-02-05 16:41:00,
2013-02-05 08:52:00,47.0,45.0,29.96,SSW,202,12.0,25.0,93,0.00,,,0.11,,2013-02-05 16:52:00,
2013-02-05 09:01:00,48.0,46.0,29.96,South,172,17.0,29.0,93,0.00,,,0.11,,2013-02-05 17:01:00,
2013-02-05 09:11:00,48.0,46.0,29.96,South,172,17.0,29.0,93,0.00,,,0.11,,2013-02-05 17:11:00,
2013-02-05 09:21:00,48.0,46.0,29.97,SSW,211,21.0,30.0,93,0.00,,,0.11,,2013-02-05 17:21:00,
2013-02-05 09:32:00,48.0,46.0,29.97,SSE,164,17.0,28.0,93,0.00,,,0.11,,2013-02-05 17:32:00,
2013-02-05 09:41:00,48.0,46.0,29.97,SSE,164,17.0,28.0,93,0.00,,,0.11,,2013-02-05 17:41:00,
2013-02-05 09:52:00,48.0,46.0,29.97,South,170,19.0,28.0,93,0.00,,,0.11,,2013-02-05 17:52:00,
2013-02-05 10:01:00,48.0,46.0,29.97,South,185,20.0,33.0,93,0.00,,,0.11,,2013-02-05 18:01:00,
2013-02-05 10:11:00,48.0,46.0,29.97,South,185,20.0,33.0,93,0.00,,,0.11,,2013-02-05 18:11:00,
2013-02-05 10:21:00,48.0,46.0,29.98,SSW,198,20.0,30.0,93,0.00,,,0.11,,2013-02-05 18:21:00,
2013-02-05 10:31:00,49.0,47.0,29.98,SSW,206,22.0,30.0,93,0.00,,,0.11,,2013-02-05 18:31:00,
2013-02-05 10:42:00,49.0,47.0,29.98,SSW,206,22.0,30.0,93,0.00,,,0.11,,2013-02-05 18:42:00,
2013-02-05 10:52:00,48.0,46.0,29.98,South,188,18.0,36.0,93,0.00,,,0.11,,2013-02-05 18:52:00,
2013-02-05 11:01:00,48.0,46.0,29.99,SSW,194,20.0,32.0,93,0.01,,,0.12,,2013-02-05 19:01:00,
2013-02-05 11:11:00,48.0,46.0,29.99,SSW,194,20.0,32.0,93,0.01,,,0.12,,2013-02-05 19:11:00,
2013-02-05 11:21:00,48.0,46.0,30.00,SSW,198,29.0,34.0,93,0.05,,,0.16,,2013-02-05 19:21:00,
2013-02-05 11:31:00,46.0,44.0,29.99,South,180,13.0,28.0,92,0.08,,,0.19,,2013-02-05 19:31:00,
2013-02-05 11:42:00,46.0,44.0,29.99,South,180,13.0,28.0,92,0.08,,,0.19,,2013-02-05 19:42:00,
2013-02-05 11:52:00,46.0,44.0,30.00,South,175,12.0,21.0,92,0.09,,,0.20,,2013-02-05 19:52:00,
2013-02-05 12:01:00,48.0,46.0,29.99,SW,224,19.0,25.0,93,0.08,,,0.20,,2013-02-05 20:01:00,
2013-02-05 12:11:00,48.0,46.0,29.99,SW,224,19.0,25.0,93,0.08,,,0.20,,2013-02-05 20:11:00,
2013-02-05 12:21:00,49.0,47.0,29.99,SSW,192,18.0,28.0,93,0.04,,,0.20,,2013-02-05 20:21:00,
2013-02-05 12:31:00,49.0,47.0,29.99,SSW,193,16.0,26.0,93,0.01,,,0.20,,2013-02-05 20:31:00,
2013-02-05 12:41:00,49.0,47.0,29.99,SSW,193,16.0,26.0,93,0.01,,,0.20,,2013-02-05 20:41:00,
2013-02-05 12:52:00,48.0,46.0,29.99,SSW,206,18.0,28.0,92,0.01,,,0.21,,2013-02-05 20:52:00,
2013-02-05 13:01:00,49.0,46.0,29.99,SW,214,18.0,23.0,91,0.01,,,0.21,,2013-02-05 21:01:00,
2013-02-05 13:11:00,49.0,46.0,29.99,SW,214,18.0,23.0,91,0.01,,,0.21,,2013-02-05 21:11:00,
2013-02-05 13:21:00,50.0,47.0,29.99,SSW,195,16.0,22.0,91,0.01,,,0.21,,2013-02-05 21:21:00,
2013-02-05 13:31:00,50.0,47.0,29.98,South,190,16.0,21.0,91,0.01,,,0.21,,2013-02-05 21:31:00,
2013-02-05 13:41:00,50.0,47.0,29.98,South,190,16.0,21.0,91,0.01,,,0.21,,2013-02-05 21:41:00,
2013-02-05 13:52:00,50.0,47.0,29.98,SSW,192,20.0,26.0,91,0.00,,,0.21,,2013-02-05 21:52:00,
2013-02-05 14:01:00,51.0,49.0,29.98,SSW,199,20.0,26.0,92,0.00,,,0.21,,2013-02-05 22:01:00,
2013-02-05 14:11:00,51.0,49.0,29.98,SSW,199,20.0,26.0,92,0.00,,,0.21,,2013-02-05 22:11:00,
2013-02-05 14:21:00,51.0,48.0,29.98,South,191,21.0,27.0,91,0.00,,,0.21,,2013-02-05 22:21:00,
2013-02-05 14:31:00,50.0,47.0,29.98,South,189,20.0,27.0,91,0.00,,,0.21,,2013-02-05 22:31:00,
2013-02-05 14:41:00,50.0,47.0,29.98,South,189,20.0,27.0,91,0.00,,,0.21,,2013-02-05 22:41:00,
2013-02-05 14:52:00,50.0,47.0,29.98,SSW,204,20.0,28.0,91,0.00,,,0.21,,2013-02-05 22:52:00,
2013-02-05 15:01:00,49.0,46.0,29.98,South,190,18.0,25.0,91,0.00,,,0.21,,2013-02-05 23:01:00,
2013-02-05 15:11:00,49.0,46.0,29.98,South,190,18.0,25.0,91,0.00,,,0.21,,2013-02-05 23:11:00,
2013-02-05 15:21:00,49.0,46.0,29.99,SSW,204,18.0,25.0,91,0.00,,,0.21,,2013-02-05 23:21:00,
2013-02-05 15:31:00,49.0,46.0,29.99,SSW,204,18.0,25.0,91,0.00,,,0.21,,2013-02-05 23:31:00,
2013-02-05 15:41:00,49.0,46.0,29.99,SSW,204,18.0,25.0,91,0.00,,,0.21,,2013-02-05 23:41:00,
2013-02-05 15:52:00,46.0,43.0,30.01,SW,236,18.0,33.0,89,0.04,,,0.25,,2013-02-05 23:52:00,
2013-02-05 16:01:00,46.0,43.0,30.01,SW,236,18.0,33.0,89,0.04,,,0.25,,2013-02-06 00:01:00,
2013-02-05 16:11:00,46.0,43.0,30.01,SW,236,18.0,33.0,89,0.04,,,0.25,,2013-02-06 00:11:00,
2013-02-05 16:21:00,48.0,45.0,30.01,SSW,202,19.0,27.0,91,0.09,,,0.30,,2013-02-06 00:21:00,
2013-02-05 16:32:00,48.0,45.0,30.01,SSW,212,15.0,23.0,90,0.05,,,0.30,,2013-02-06 00:32:00,
2013-02-05 16:42:00,48.0,45.0,30.01,SSW,212,15.0,23.0,90,0.05,,,0.30,,2013-02-06 00:42:00,
2013-02-05 16:52:00,48.0,45.0,30.01,SSW,192,18.0,23.0,89,0.00,,,0.30,,2013-02-06 00:52:00,
2013-02-05 17:01:00,48.0,45.0,30.02,SSW,212,16.0,25.0,89,0.00,,,0.30,,2013-02-06 01:01:00,
2013-02-05 17:11:00,48.0,45.0,30.02,SSW,212,16.0,25.0,89,0.00,,,0.30,,2013-02-06 01:11:00,
2013-02-05 17:21:00,48.0,45.0,30.01,SSW,196,17.0,23.0,90,0.00,,,0.30,,2013-02-06 01:21:00,
2013-02-05 17:31:00,48.0,45.0,30.01,South,190,15.0,21.0,90,0.00,,,0.30,,2013-02-06 01:31:00,
2013-02-05 17:41:00,48.0,45.0,30.01,South,190,15.0,21.0,90,0.00,,,0.30,,2013-02-06 01:41:00,
2013-02-05 17:52:00,47.0,45.0,30.02,SSW,201,13.0,24.0,91,0.00,,,0.30,,2013-02-06 01:52:00,
2013-02-05 18:01:00,48.0,45.0,30.02,South,189,13.0,20.0,91,0.00,,,0.30,,2013-02-06 02:01:00,
2013-02-05 18:11:00,48.0,45.0,30.02,South,189,13.0,20.0,91,0.00,,,0.30,,2013-02-06 02:11:00,
2013-02-05 18:21:00,48.0,46.0,30.02,SSW,206,17.0,23.0,92,0.00,,,0.30,,2013-02-06 02:21:00,
2013-02-05 18:31:00,48.0,45.0,30.03,SW,223,18.0,27.0,91,0.01,,,0.31,,2013-02-06 02:31:00,
2013-02-05 18:41:00,48.0,45.0,30.03,SW,223,18.0,27.0,91,0.01,,,0.31,,2013-02-06 02:41:00,
2013-02-05 18:52:00,48.0,46.0,30.03,SSW,204,21.0,27.0,92,0.04,,,0.34,,2013-02-06 02:52:00,
2013-02-05 19:02:00,48.0,46.0,30.03,SSW,203,18.0,25.0,92,0.04,,,0.34,,2013-02-06 03:02:00,
2013-02-05 19:11:00,48.0,46.0,30.03,SSW,203,18.0,25.0,92,0.04,,,0.34,,2013-02-06 03:11:00,
2013-02-05 19:21:00,48.0,46.0,30.03,SSW,203,18.0,25.0,92,0.04,,,0.34,,2013-02-06 03:21:00,
2013-02-05 19:31:00,48.0,46.0,30.05,SW,220,19.0,23.0,92,0.02,,,0.34,,2013-02-06 03:31:00,
2013-02-05 19:42:00,48.0,46.0,30.05,SW,220,19.0,23.0,92,0.02,,,0.34,,2013-02-06 03:42:00,
2013-02-05 19:52:00,48.0,46.0,30.05,SW,220,19.0,23.0,92,0.02,,,0.34,,2013-02-06 03:52:00,
2013-02-05 20:01:00,48.0,46.0,30.05,SSW,207,18.0,22.0,92,0.00,,,0.34,,2013-02-06 04:01:00,
2013-02-05 20:11:00,48.0,46.0,30.05,SSW,207,18.0,22.0,92,0.00,,,0.34,,2013-02-06 04:11:00,
2013-02-05 20:21:00,48.0,46.0,30.05,SSW,210,16.0,22.0,92,0.00,,,0.34,,2013-02-06 04:21:00,
2013-02-05 20:31:00,48.0,46.0,30.05,SSW,210,16.0,22.0,92,0.00,,,0.34,,2013-02-06 04:31:00,
2013-02-05 20:41:00,48.0,46.0,30.05,SSW,210,16.0,22.0,92,0.00,,,0.34,,2013-02-06 04:41:00,
2013-02-05 20:51:00,48.0,46.0,30.06,SSW,207,17.0,21.0,92,0.00,,,0.34,,2013-02-06 04:51:00,
2013-02-05 21:01:00,48.0,46.0,30.06,SSW,208,21.0,25.0,92,0.00,,,0.34,,2013-02-06 05:01:00,
2013-02-05 21:12:00,48.0,46.0,30.06,SSW,208,21.0,25.0,92,0.00,,,0.34,,2013-02-06 05:12:00,
2013-02-05 21:22:00,48.0,46.0,30.07,SSW,208,19.0,22.0,92,0.00,,,0.34,,2013-02-06 05:22:00,
2013-02-05 21:31:00,48.0,46.0,30.06,SSW,208,19.0,24.0,92,0.00,,,0.34,,2013-02-06 05:31:00,
2013-02-05 21:41:00,48.0,46.0,30.06,SSW,208,19.0,24.0,92,0.00,,,0.34,,2013-02-06 05:41:00,
2013-02-05 21:52:00,48.0,46.0,30.07,SSW,194,19.0,24.0,92,0.00,,,0.34,,2013-02-06 05:52:00,
2013-02-05 22:01:00,48.0,46.0,30.07,SSW,194,19.0,24.0,92,0.00,,,0.34,,2013-02-06 06:01:00,
2013-02-05 22:11:00,48.0,46.0,30.07,SSW,194,19.0,24.0,92,0.00,,,0.34,,2013-02-06 06:11:00,
2013-02-05 22:21:00,48.0,46.0,30.07,SW,216,14.0,18.0,92,0.00,,,0.34,,2013-02-06 06:21:00,
2013-02-05 22:31:00,48.0,46.0,30.07,SW,216,14.0,18.0,92,0.00,,,0.34,,2013-02-06 06:31:00,
2013-02-05 22:41:00,48.0,46.0,30.07,SW,216,14.0,18.0,92,0.00,,,0.34,,2013-02-06 06:41:00,
2013-02-05 22:51:00,48.0,46.0,30.08,SSW,205,14.0,18.0,92,0.00,,,0.34,,2013-02-06 06:51:00,
2013-02-05 23:01:00,48.0,46.0,30.08,SSW,207,16.0,20.0,92,0.00,,,0.34,,2013-02-06 07:01:00,
2013-02-05 23:11:00,48.0,46.0,30.08,SSW,207,16.0,20.0,92,0.00,,,0.34,,2013-02-06 07:11:00,
2013-02-05 23:21:00,48.0,46.0,30.08,South,189,14.0,20.0,92,0.00,,,0.34,,2013-02-06 07:21:00,
2013-02-05 23:32:00,48.0,46.0,30.08,SSW,200,13.0,20.0,92,0.00,,,0.34,,2013-02-06 07:32:00,
2013-02-05 23:41:00,48.0,46.0,30.08,SSW,200,13.0,20.0,92,0.00,,,0.34,,2013-02-06 07:41:00,
2013-02-05 23:51:00,48.0,46.0,30.08,SSW,204,15.0,19.0,92,0.00,,,0.34,,2013-02-06 07:51:00,